User: anonymous   Login
Location: Caltech
(34.1382°N, 118.1253°W)
Time: 00:25:05
(UTC-08:00)
Language:

Cosmos 1939 Rocket - Orbit

View from above orbital plane
View from above orbital plane
View from above satellite
View from above satellite

Ground track
Ground track

The orbit data is extracted from the following two-line orbital elements,

1 19046U 88032B   14326.80017191  .00002606  00000-0  21100-3 0   536
2 19046 097.6250 018.4384 0037496 280.6252 079.0750 15.00070861431973
Epoch (UTC): 22 November 2014 19:12:14
Eccentricity: 0.0037496
inclination: 97.6250°
perigee height: 540 km
apogee height: 593 km
right ascension of ascending node: 18.4384°
argument of perigee: 280.6252°
revolutions per day: 15.00070861
mean anomaly at epoch: 79.0750°
orbit number at epoch: 43197

The dashed part of the orbit path shows where the satellite is in the earth's shadow,  

DLR